Terug naar catalogus

SL-12 R/B(2)

ActiefMEO
NORAD 20028·ROCKET BODY·🇷🇺 Russia

Gelanceerd May 31, 1989 vanaf Baikonur Cosmodrome

Loading…

Volgende Passages (komende 24 uur)

TLE

VersSource: Space-Track

Epoch: Sep 14, 2026, 02:15 UTC

1 20028U 89039E   26257.09439706 -.00000044  00000-0  00000-0 0  9990
2 20028  64.8406 306.0770 0008282 280.2578  84.3018  2.13485255276236

Volg SL-12 R/B(2) in realtime met AllMySat

Download on the App Store